Theta_e
321 324 327 328 328 331 332 332 331 329 328 322 322 320 318 323 323 320 318 318 317 319 320 320 321 322 323 322 323 322 323 325 326 328 329 325 316 314 315 315 319 319 321 324 326 324 321 324 325 326 327 326 327 326 325 326 327 328 329 331 332 331 332 332 333 334 335 336 336 336 336 337 337 337 337 337 337 335 336 336 337 337 338 339 339 340 340 340 340 340 340 340 340 339 338 338 339
326 328 327 329 329 333 336 333 329 326 324 319 321 321 320 323 321 320 318 318 319 319 321 321 321 321 322 322 321 321 323 322 322 325 322 316 313 313 313 315 318 318 321 323 325 324 321 322 323 325 326 326 326 324 322 322 323 324 326 327 328 328 329 329 330 330 331 331 332 332 332 333 333 334 334 334 334 334 333 334 334 334 335 337 338 338 338 338 339 339 339 339 338 337 337 337 337
326 329 328 329 330 333 335 332 326 322 320 318 319 322 323 321 319 321 320 320 321 320 320 320 320 320 321 322 321 321 323 321 319 318 316 314 314 313 312 314 316 317 319 322 324 322 320 320 323 325 325 325 323 321 319 318 319 320 321 323 324 324 325 325 326 326 326 327 327 327 327 328 328 328 329 329 329 329 330 330 330 331 333 335 336 336 336 336 336 337 337 337 336 335 335 336 336
324 329 330 330 333 332 332 332 328 322 320 317 316 323 324 321 321 322 321 321 320 319 320 319 319 319 320 321 320 319 322 320 319 317 315 315 314 313 311 312 315 315 317 321 322 320 319 319 321 322 322 321 319 317 316 316 316 316 317 318 319 319 320 321 321 321 322 322 322 322 322 322 322 323 323 323 324 324 325 325 326 327 328 330 332 333 333 333 334 335 335 335 335 334 334 334 334
323 329 328 330 336 333 331 330 329 325 323 320 317 322 322 320 322 321 321 320 319 319 319 318 319 318 318 320 319 321 322 320 319 317 314 312 312 312 310 310 313 314 316 320 320 318 317 318 318 318 317 316 315 314 314 313 313 313 313 314 314 315 315 316 316 317 317 317 317 317 317 317 317 317 317 317 318 319 319 320 321 322 323 324 325 326 327 328 329 330 331 331 332 333 332 333 333
324 327 326 328 332 329 330 328 325 324 325 324 319 321 321 320 322 321 320 319 319 318 318 318 318 318 318 318 319 321 320 319 319 317 314 310 310 310 309 310 312 313 316 319 319 316 315 316 315 316 315 314 314 312 311 310 308 308 308 308 309 309 309 309 309 309 310 310 310 310 310 309 309 309 309 310 310 311 312 313 314 315 316 317 318 319 320 321 322 323 324 324 325 326 326 327 328
326 328 328 328 329 326 327 325 322 321 323 324 321 321 321 320 322 321 319 318 318 317 318 319 318 318 319 318 319 318 317 319 318 317 315 311 310 308 307 309 311 313 315 317 317 314 314 315 314 314 313 311 310 307 306 305 304 303 303 302 302 302 302 302 302 302 302 302 302 302 302 302 302 301 302 302 303 303 304 305 306 306 307 309 310 311 312 313 314 314 315 315 316 316 316 317 318
325 329 329 328 329 326 324 322 321 322 322 323 321 322 322 321 322 321 319 319 318 318 317 317 318 318 319 318 320 318 315 317 316 315 315 312 309 307 306 308 310 311 314 315 314 313 313 313 312 311 309 307 305 304 304 303 302 301 301 300 300 300 299 299 299 299 299 299 299 299 299 299 298 298 298 299 299 299 299 300 300 300 300 301 302 303 303 304 304 305 305 305 305 305 306 306 307
324 328 328 326 327 326 324 323 322 322 323 322 320 322 322 321 321 320 319 319 318 318 317 318 317 317 318 319 320 317 315 315 314 313 312 312 309 305 305 307 308 310 312 313 311 311 310 309 309 308 307 306 304 304 303 302 301 300 300 299 299 299 298 298 298 298 298 298 298 297 297 297 297 297 297 297 297 297 297 298 298 298 298 298 298 298 299 299 299 299 299 299 299 299 300 300 300
324 326 326 326 326 323 322 322 323 324 323 321 319 320 321 320 320 320 319 318 319 318 318 318 317 317 318 318 320 317 315 314 312 310 310 310 307 304 304 305 307 308 310 312 310 308 306 304 305 305 305 304 304 304 303 301 300 299 298 298 298 297 297 297 297 297 297 297 297 297 297 297 296 296 296 297 296 296 296 296 297 297 297 297 297 297 297 297 297 298 298 298 298 298 298 298 298
326 325 324 325 323 321 319 319 323 325 322 320 320 319 320 320 320 319 319 319 318 319 318 318 317 317 317 317 322 318 313 312 310 309 308 308 305 303 304 304 305 306 307 309 307 304 301 300 301 301 301 302 302 302 301 300 298 297 297 297 296 296 296 296 296 296 296 296 296 296 296 296 296 296 296 296 296 296 296 296 296 296 296 296 297 297 297 297 297 297 297 297 297 297 297 297 297
328 328 326 323 321 319 320 321 323 326 324 322 321 319 320 320 320 319 319 319 319 319 318 318 317 317 317 317 321 316 312 311 310 309 307 306 304 303 303 304 304 304 304 304 303 301 299 299 299 299 299 299 299 299 298 298 297 297 296 296 296 296 296 296 296 296 296 296 296 296 296 296 296 296 296 296 296 296 296 296 296 296 296 296 296 296 296 297 297 297 297 297 297 297 297 297 297
327 329 327 324 324 322 323 323 324 326 325 324 321 319 320 319 319 319 319 319 319 319 318 317 317 317 317 319 318 314 312 311 310 308 306 305 304 303 302 302 302 302 301 300 301 300 298 298 298 298 297 297 297 297 297 296 296 296 296 296 296 296 296 296 296 296 296 296 296 296 296 296 296 296 296 296 296 296 296 296 296 296 296 296 296 296 296 296 296 296 296 297 297 297 297 297 297
327 327 326 326 327 324 324 324 324 323 321 323 320 318 319 318 319 319 319 319 319 319 318 317 317 317 317 319 318 315 313 311 309 307 305 304 303 302 302 301 300 300 299 298 299 299 298 298 297 297 296 296 296 296 296 296 296 296 296 296 296 295 295 295 295 295 295 295 295 295 295 295 295 295 295 295 295 295 295 295 295 295 295 295 295 295 295 295 295 295 296 296 296 296 296 296 296
326 327 325 325 324 322 324 324 324 322 321 322 319 318 319 318 319 319 319 319 318 318 317 317 316 317 316 318 320 316 313 310 308 307 305 303 302 302 302 300 299 298 297 298 298 298 298 299 298 296 296 296 296 296 296 296 296 296 296 295 295 295 295 295 295 295 295 295 295 295 295 295 294 294 295 294 294 294 294 294 294 294 294 294 295 295 295 295 295 295 295 295 295 295 295 296 296
323 326 326 324 322 321 324 326 324 322 322 320 317 318 318 318 318 318 317 317 318 318 317 317 316 316 316 317 319 315 312 309 307 305 303 302 302 302 302 300 299 298 297 298 298 298 298 298 298 297 296 296 296 296 296 296 296 295 295 295 295 295 295 295 295 295 295 295 295 294 296 296 294 294 294 294 294 294 294 294 294 294 294 294 294 294 294 294 294 294 294 294 294 294 294 295 295
323 325 327 325 323 321 324 327 323 321 322 320 317 317 317 317 317 316 315 314 316 317 318 317 316 315 315 315 315 313 310 308 306 304 303 303 302 302 302 301 299 299 297 298 299 298 298 298 297 296 296 297 297 296 295 296 296 295 295 295 295 295 295 295 295 295 294 294 295 295 295 296 295 293 294 294 294 294 293 293 293 293 293 293 293 294 293 293 294 294 293 294 294 294 294 294 294
325 326 325 323 324 323 323 324 322 321 322 319 317 317 317 317 317 315 314 315 315 316 317 317 316 316 313 312 312 311 308 306 305 304 303 303 303 303 302 301 301 300 298 298 299 299 298 298 297 296 296 296 296 296 295 296 296 296 295 295 295 295 295 295 294 294 294 295 296 294 294 296 295 294 294 294 294 293 293 293 293 293 293 293 293 293 293 293 293 293 293 293 293 293 293 293 293
325 328 325 324 325 323 322 321 320 320 320 319 318 317 317 317 318 315 315 316 316 315 316 316 316 316 312 311 311 309 307 306 305 304 304 303 303 303 302 301 301 301 300 299 299 299 298 298 298 297 296 296 296 295 295 296 296 296 295 295 295 295 295 295 294 294 294 294 295 294 294 295 294 294 294 294 294 293 293 293 293 292 292 292 292 292 292 292 293 292 292 292 292 292 292 292 293
323 325 325 325 324 322 321 320 319 318 318 318 318 318 316 317 317 315 315 316 316 316 316 316 316 316 314 311 310 307 307 306 305 305 305 304 304 303 303 302 301 301 301 299 299 300 299 298 297 297 296 295 296 295 295 296 296 296 296 295 295 295 295 295 295 294 294 294 294 294 294 294 294 294 294 294 294 294 293 293 293 292 292 292 292 292 292 292 292 292 292 292 292 292 292 292 292
323 323 323 323 321 321 320 319 319 318 317 317 317 318 317 317 317 315 315 316 316 316 316 317 316 316 315 312 310 307 307 306 306 306 306 305 305 304 303 303 302 302 302 300 300 300 299 298 297 298 297 295 295 295 295 296 296 296 296 295 296 295 295 295 295 295 294 295 294 294 294 294 294 294 294 294 294 294 293 293 293 292 292 292 292 292 291 291 291 291 292 291 292 292 292 292 292
322 321 321 321 320 320 319 317 318 317 316 315 315 316 317 317 317 316 316 316 317 316 317 317 317 317 316 313 310 308 307 307 306 306 306 306 305 305 304 303 303 302 302 301 301 300 299 299 298 298 297 295 295 295 295 296 295 296 296 295 295 295 295 295 295 295 295 294 294 294 294 294 294 294 294 294 294 293 293 293 292 292 292 292 291 291 291 291 291 291 291 291 291 291 291 291 291
320 320 320 319 319 319 318 317 318 316 314 315 315 315 316 317 316 316 316 315 316 317 318 317 317 317 316 313 310 309 308 308 307 306 306 306 306 306 305 304 304 303 302 302 301 301 300 299 298 298 297 295 296 296 296 296 296 296 296 295 295 295 294 294 295 295 294 294 294 294 294 294 294 294 294 294 294 293 293 293 292 291 291 291 290 291 291 290 290 290 290 291 290 290 291 291 291
318 318 318 318 319 319 318 318 316 315 314 315 315 315 315 316 316 316 316 315 315 316 317 317 316 315 315 313 311 311 309 308 307 307 307 307 306 306 306 305 304 303 303 302 302 301 300 300 299 298 297 296 296 296 297 296 296 297 296 295 296 296 294 294 294 294 294 294 294 294 294 294 294 294 294 294 293 293 293 292 292 291 291 291 290 290 290 290 290 290 290 290 290 290 290 290 291
318 318 317 318 318 318 317 318 316 315 314 315 315 314 315 315 315 315 315 315 315 316 316 317 316 315 316 314 312 312 311 309 308 307 307 307 307 307 306 305 304 303 303 302 302 301 300 300 299 298 297 296 296 297 297 296 296 297 296 294 295 295 295 295 294 294 295 294 294 293 293 293 293 293 293 293 293 293 292 292 291 290 290 291 290 289 289 289 289 290 290 290 290 290 290 290 290
318 317 317 317 318 318 317 317 316 315 314 314 314 314 314 314 315 315 315 315 315 316 316 317 316 315 316 315 313 312 312 311 309 308 308 307 307 307 306 305 304 303 303 303 302 301 300 300 299 299 297 296 296 296 297 296 296 296 294 294 294 294 294 294 293 294 294 294 293 293 293 293 293 293 293 293 293 292 292 291 290 290 290 290 290 289 289 289 289 290 290 290 290 290 290 290 291
317 316 316 315 316 316 317 317 317 316 315 315 315 314 314 314 315 315 315 315 315 316 316 316 316 315 315 315 314 313 313 312 310 309 308 307 307 307 306 306 304 304 303 303 302 301 300 300 299 298 298 297 296 296 297 297 296 295 294 295 294 294 294 293 293 294 293 293 293 293 293 293 292 292 292 292 292 292 291 291 290 290 290 290 289 289 289 289 289 289 290 290 290 290 290 290 291
316 315 315 315 315 316 316 316 316 316 315 315 314 314 314 315 315 315 315 316 316 316 316 316 316 316 315 315 315 315 313 312 311 310 309 307 307 307 306 306 305 304 303 303 302 301 300 299 299 298 298 297 296 295 296 297 296 295 294 294 294 294 294 293 293 293 293 293 292 292 292 292 292 292 291 291 291 291 291 290 290 290 290 290 289 289 289 288 288 289 290 290 289 289 289 290 290
315 314 315 315 315 316 316 316 316 315 315 315 314 314 314 314 315 314 314 315 316 316 316 316 316 316 316 315 315 315 313 312 311 310 309 308 308 307 306 306 305 304 303 303 302 301 300 299 299 298 298 297 297 296 296 297 296 295 294 294 294 293 293 293 293 293 293 293 292 292 292 291 292 291 291 291 291 291 291 290 290 289 290 289 288 288 288 288 288 289 290 289 288 289 289 289 290
315 314 315 316 316 317 317 317 317 315 315 315 314 315 315 315 315 315 315 315 315 316 315 317 318 317 317 315 314 314 313 312 311 311 310 310 308 308 307 306 306 305 303 303 302 301 300 299 298 298 298 297 297 296 297 297 296 296 295 294 294 293 293 293 293 293 292 292 292 292 291 291 291 291 291 291 291 291 290 290 289 289 289 289 288 288 288 287 288 289 289 288 288 289 289 289 289
315 316 317 317 317 318 318 319 318 316 315 314 314 314 315 315 316 315 315 316 315 315 315 315 316 316 316 315 314 314 313 312 311 311 311 310 309 308 307 307 306 305 304 303 302 301 300 299 298 298 297 297 297 297 297 296 296 296 295 294 294 293 292 292 293 292 292 292 292 292 291 291 291 290 290 290 290 290 290 289 289 289 289 288 288 288 287 287 288 288 288 288 289 289 288 288 289
316 317 319 320 319 318 319 319 317 316 313 313 314 315 315 314 316 317 316 317 316 315 315 315 315 315 315 314 314 313 313 311 310 311 311 311 310 309 308 307 306 305 304 303 302 301 300 299 298 297 297 297 297 297 297 296 296 295 294 294 294 293 292 292 292 292 292 292 292 292 291 291 291 290 290 290 290 290 289 289 289 288 288 288 288 287 287 287 287 288 288 289 289 288 288 288 288
319 318 318 320 319 318 319 317 316 316 314 312 314 315 316 315 317 319 317 317 316 315 315 315 315 314 314 315 313 313 313 312 311 310 310 311 310 309 308 307 306 306 304 303 302 301 300 299 298 297 297 297 296 296 296 296 295 295 294 294 293 293 293 293 292 292 292 291 291 291 291 291 291 290 290 290 290 289 289 289 289 288 288 288 287 287 287 286 287 288 289 289 288 287 287 287 287
320 320 318 320 320 319 319 318 315 316 315 314 313 314 315 316 317 318 317 317 316 315 316 316 316 315 315 316 315 314 313 313 313 310 310 311 310 309 308 307 306 306 304 303 302 301 300 299 298 297 297 297 296 296 296 296 295 295 294 294 293 293 293 293 292 292 291 291 291 291 291 291 291 290 290 289 289 289 289 289 288 288 288 287 287 286 286 286 287 288 289 288 286 286 287 287 287
318 319 316 317 318 317 319 318 316 315 315 315 314 314 313 314 315 315 316 317 316 316 316 315 315 315 315 316 316 315 314 313 312 310 310 310 310 309 308 307 307 306 304 303 302 301 300 299 298 298 297 297 296 296 296 296 295 295 294 294 294 293 293 292 292 292 291 291 291 291 291 291 290 290 290 289 289 289 289 288 288 288 287 287 286 286 286 286 287 287 287 286 286 286 286 287 287
317 318 316 316 316 316 318 318 316 315 315 315 314 314 314 314 315 315 316 316 317 316 316 316 315 315 315 315 316 316 316 315 312 310 310 310 309 309 308 307 306 305 304 303 302 301 300 299 298 297 297 297 296 296 296 295 295 294 294 294 293 292 292 292 292 292 291 291 291 291 291 290 290 290 289 289 289 288 288 288 287 287 287 286 286 286 286 286 286 286 285 286 286 286 286 287 286
317 318 317 318 317 317 317 318 317 315 316 316 315 315 315 315 316 316 316 317 317 317 317 316 316 315 316 315 316 316 316 316 314 310 310 310 309 309 308 306 305 305 304 303 302 301 300 299 298 297 297 296 296 296 295 295 294 294 294 293 293 292 292 292 292 291 291 291 291 291 290 290 289 289 289 289 288 288 288 287 287 286 286 286 286 286 286 285 285 285 286 286 286 286 286 286 286
318 319 318 318 319 317 316 318 317 315 317 317 317 317 316 316 316 316 317 317 317 317 317 317 316 315 316 316 317 316 316 320 320 313 310 308 308 308 307 306 305 304 303 302 301 301 300 299 299 298 297 296 296 296 295 295 294 294 294 293 293 292 292 292 291 291 291 290 290 290 290 289 289 289 289 289 288 288 287 287 287 286 286 286 286 286 285 285 285 285 286 286 286 286 286 285 286
320 321 320 318 318 317 318 319 316 313 316 318 317 317 316 316 317 316 316 317 317 317 317 317 316 316 316 316 316 317 318 324 322 315 310 308 307 307 306 305 304 304 302 302 301 301 300 299 299 298 297 296 296 296 295 295 294 294 294 293 293 292 292 292 292 291 290 290 290 290 290 289 289 289 289 288 288 288 287 287 287 286 286 286 285 285 285 285 285 285 286 286 286 285 285 285 286
320 320 319 317 317 318 318 318 316 313 315 317 317 317 316 316 316 316 316 316 316 317 317 318 318 317 317 316 317 319 322 323 318 314 312 308 306 306 305 304 303 303 302 301 301 300 300 299 298 298 297 297 296 296 295 295 294 294 293 293 293 293 292 292 292 291 291 290 290 290 289 289 289 289 288 288 288 287 287 287 287 286 286 286 285 285 285 284 284 285 285 285 285 285 285 285 285
320 321 319 317 317 318 318 320 319 316 316 316 317 317 316 317 317 317 317 317 317 317 317 317 318 318 318 318 320 322 324 323 317 313 312 309 307 305 304 303 303 303 302 301 301 300 300 299 298 298 297 296 296 295 295 295 294 294 294 294 293 293 293 292 292 291 291 290 290 290 289 289 288 288 288 288 287 287 287 287 286 286 286 285 285 284 284 284 284 285 285 284 285 285 285 285 284
318 322 322 319 319 319 320 323 324 325 323 318 317 318 317 319 320 318 319 320 319 317 317 317 317 317 317 319 320 322 324 323 317 313 312 310 307 304 303 303 302 302 302 301 301 300 300 299 299 298 297 297 296 295 295 295 294 294 294 294 293 293 292 292 292 292 291 291 290 290 289 289 288 288 288 287 287 287 287 287 286 286 285 285 284 284 284 284 284 284 284 284 284 284 284 284 284
316 325 329 323 321 324 326 325 326 329 327 320 320 320 318 318 318 318 320 322 321 318 317 318 317 317 317 318 321 324 324 322 317 313 312 310 307 304 304 302 302 302 302 301 301 300 300 299 299 298 297 297 296 295 295 295 294 294 294 294 293 293 292 292 292 291 291 291 290 289 289 288 288 288 288 287 287 287 286 286 286 286 285 285 284 284 283 283 283 283 283 284 284 284 284 284 283
320 327 330 325 323 326 326 325 327 328 323 321 322 321 321 319 316 318 321 320 321 319 317 318 317 316 316 315 319 326 326 321 318 315 312 310 308 305 304 302 302 302 302 302 300 300 299 299 298 298 297 297 296 295 295 294 294 294 293 293 293 293 292 292 291 291 290 290 289 289 289 288 288 288 287 287 287 286 286 286 286 285 285 284 284 283 283 283 283 283 283 283 283 283 283 283 283
323 325 324 323 323 323 322 322 325 324 320 321 324 322 322 320 316 318 320 318 319 318 317 319 316 315 317 315 318 326 326 320 318 316 313 311 307 304 303 303 302 302 302 302 301 300 299 299 298 298 297 297 296 295 295 294 294 294 293 293 292 292 292 291 291 291 291 290 290 289 289 288 288 287 287 286 286 286 286 286 286 285 285 284 283 283 283 283 283 283 283 282 282 282 282 283 283
322 323 321 322 322 319 320 320 320 321 319 321 325 322 320 319 315 316 319 317 317 317 316 316 315 315 318 317 319 326 325 320 317 316 314 311 306 305 305 303 303 302 302 301 301 300 299 298 298 298 297 297 296 295 295 294 294 293 293 292 292 292 291 291 291 291 291 291 290 289 289 288 287 287 286 286 286 286 286 286 285 285 284 284 283 283 282 282 282 282 282 282 282 282 282 282 282
320 321 319 321 322 319 319 318 317 320 320 319 323 322 318 318 317 317 318 317 317 317 315 315 315 316 318 318 321 327 324 320 318 316 315 311 306 304 305 304 303 302 301 301 300 300 299 298 298 297 297 296 296 295 295 294 294 293 293 292 292 292 291 292 292 291 291 290 290 289 288 287 287 287 286 286 286 286 285 285 285 285 284 283 283 282 282 282 282 282 282 282 282 282 282 282 282
320 320 317 321 323 320 319 317 318 321 320 320 324 321 318 319 319 318 318 317 316 316 315 315 316 317 319 320 323 327 323 319 318 317 316 313 307 306 304 303 303 302 301 301 300 300 298 298 298 297 297 296 296 295 295 294 294 293 293 292 292 292 292 292 291 291 290 290 289 288 288 287 286 286 286 286 286 285 285 285 285 284 284 283 282 282 282 282 282 282 282 282 281 281 281 281 281
320 321 318 321 322 321 322 322 323 323 320 322 325 322 319 318 317 317 317 317 317 316 316 316 317 319 322 324 325 327 323 319 317 317 315 312 309 308 304 302 302 301 301 300 300 299 298 298 297 297 296 296 296 295 295 294 293 293 292 292 292 292 292 292 291 291 290 290 289 288 287 287 286 286 286 286 285 285 285 285 284 284 283 283 282 282 282 282 282 281 281 281 281 281 281 281 281
317 320 321 324 324 322 324 325 327 326 321 321 322 322 323 318 316 319 317 316 317 316 317 319 320 321 324 327 330 327 322 319 317 316 315 312 310 308 304 302 301 301 300 300 300 299 298 298 297 297 296 296 295 295 294 294 293 293 292 292 292 292 292 291 291 290 290 289 289 288 288 287 287 286 286 286 285 285 285 284 284 283 283 282 282 281 281 281 281 280 280 280 280 280 280 280 280
313 317 320 323 324 321 321 323 323 324 324 321 318 321 322 317 318 321 317 316 317 316 317 319 323 324 323 329 330 325 321 319 318 316 314 312 310 307 304 302 302 301 300 300 299 299 298 298 297 297 296 296 295 295 294 294 293 293 292 292 292 291 291 291 290 290 290 289 289 288 288 287 287 286 286 286 285 285 284 284 283 283 282 281 281 281 280 280 280 280 280 280 280 280 280 280 280
315 317 318 320 323 320 319 322 321 320 323 321 317 321 320 314 316 319 316 317 316 315 316 317 321 323 322 328 328 324 321 319 318 316 314 313 310 306 303 303 302 301 300 299 299 299 298 298 297 297 296 296 295 295 294 294 293 293 292 292 291 291 291 291 290 290 289 289 288 288 288 287 287 286 286 285 285 284 284 283 283 282 282 281 280 280 280 279 279 279 279 279 279 279 279 279 279
318 319 320 320 322 321 321 323 321 319 321 319 316 320 318 313 316 317 315 317 315 315 316 314 318 320 320 324 325 322 320 318 317 316 314 313 311 307 304 303 303 301 301 300 299 299 298 298 297 297 296 296 295 295 294 294 293 292 292 291 291 291 291 290 290 289 289 288 288 288 287 287 286 286 285 285 284 283 283 283 282 282 281 280 280 280 279 279 279 279 279 279 279 279 279 279 279
319 321 321 318 321 323 320 321 322 321 321 319 316 317 316 314 317 318 316 315 315 315 315 314 316 316 317 322 324 322 320 319 317 316 315 313 312 309 305 303 303 302 301 300 299 299 298 298 297 297 296 296 295 295 294 294 293 292 292 291 291 290 290 290 289 289 288 288 287 287 287 286 286 285 285 284 284 283 283 283 282 282 281 280 280 279 279 279 279 278 278 278 278 278 278 278 278
316 318 318 318 321 323 320 320 322 322 319 317 317 316 315 314 315 316 316 315 314 314 314 314 314 314 316 321 322 322 322 321 318 317 316 313 312 309 305 303 303 303 302 301 300 299 298 298 298 297 297 296 295 295 294 293 293 292 291 291 290 290 289 289 289 288 288 287 287 286 286 286 285 285 284 284 284 283 283 282 282 281 280 280 279 279 279 278 278 278 278 278 278 277 277 277 277
312 313 315 316 317 321 322 320 320 320 317 316 317 316 315 315 315 316 318 316 314 313 313 314 314 314 317 319 320 322 324 323 320 317 315 313 312 309 305 304 304 303 302 301 300 299 298 298 298 297 296 296 295 295 294 293 292 292 291 290 290 289 289 288 288 288 287 287 287 286 286 285 285 284 284 284 283 283 282 282 281 281 280 279 279 279 278 278 278 277 277 277 277 277 276 276 276
313 313 316 314 313 316 319 319 318 318 317 316 317 316 315 315 317 319 318 315 313 314 315 315 316 316 317 319 320 322 324 323 320 317 314 313 312 308 303 303 304 303 302 301 300 299 298 298 297 297 296 296 295 294 294 293 292 291 291 290 289 289 288 288 287 287 286 286 286 286 285 285 284 284 284 283 283 282 282 282 281 280 279 279 279 278 278 277 277 277 277 276 276 276 276 276 276
315 314 314 314 314 315 317 318 317 317 316 316 316 316 315 315 319 319 318 316 314 315 315 315 318 317 317 319 320 321 323 323 321 319 316 314 313 310 304 302 303 302 301 301 300 299 298 298 297 297 296 296 295 294 293 293 292 291 290 290 289 288 287 287 286 286 286 285 285 285 284 284 283 283 283 283 282 282 282 281 280 279 279 279 278 278 278 277 277 276 276 276 275 275 275 275 275
Wind_Speed
4 5 4 4 5 7 6 3 1 2 2 4 6 3 2 4 4 3 3 3 1 1 3 3 3 3 3 2 3 3 5 3 1 2 1 4 10 10 9 10 9 11 12 11 7 5 8 10 11 10 10 9 9 8 7 7 5 4 5 6 7 5 3 4 3 3 4 4 4 4 4 4 4 5 5 5 3 4 5 4 5 5 7 9 10 10 11 12 11 11 11 11 10 9 8 8 9
4 4 4 4 5 4 3 1 1 3 3 4 5 2 4 4 3 3 4 4 2 4 5 4 5 5 4 3 4 2 5 6 4 3 3 10 11 9 10 11 10 11 12 11 8 5 7 10 10 11 10 10 9 8 6 5 5 4 5 6 5 4 5 4 3 2 2 1 2 1 1 1 2 2 2 3 3 4 5 5 5 5 5 6 7 8 9 10 9 9 10 11 10 7 6 8 8
3 1 4 4 4 3 2 0 2 3 3 4 1 2 4 4 4 3 4 5 6 6 6 5 4 4 3 2 2 2 2 4 7 5 5 12 10 8 11 12 11 11 14 11 8 6 7 10 10 10 10 9 8 6 5 5 4 4 4 4 3 3 3 3 3 2 2 2 2 2 2 2 2 3 3 4 4 5 6 7 7 7 6 5 5 5 4 5 6 7 7 9 10 7 6 7 9
2 2 4 5 2 3 2 1 3 3 4 4 1 1 3 4 6 7 7 7 6 6 5 2 1 2 2 1 1 2 3 4 7 7 5 9 8 12 13 12 10 10 13 9 6 6 7 9 8 9 8 7 5 4 4 4 4 3 4 3 3 3 3 3 3 2 2 2 2 3 3 3 3 4 4 4 5 5 6 7 7 7 7 6 6 6 6 5 7 8 7 7 9 9 8 7 8
2 2 4 4 1 1 1 2 3 3 5 4 1 1 2 4 8 8 6 6 4 4 3 2 1 1 1 0 2 1 3 3 7 9 8 8 9 14 14 13 11 10 13 8 5 5 7 8 7 7 5 5 4 4 3 3 4 4 4 4 4 3 3 3 3 3 3 2 2 3 3 4 4 5 5 5 4 5 5 6 6 6 7 7 7 7 7 8 8 9 9 9 10 11 11 10 10
2 2 4 3 1 0 1 3 4 5 5 4 1 2 3 4 9 9 6 6 5 5 3 2 2 1 1 2 2 2 2 4 8 8 11 13 12 14 14 13 11 11 12 10 8 6 9 8 7 8 6 7 6 6 5 5 5 5 5 4 4 4 4 3 3 4 3 3 3 3 4 4 5 5 5 5 5 5 5 6 6 6 6 7 7 7 7 8 9 9 10 10 11 13 13 13 13
4 2 3 2 2 0 1 4 4 5 3 3 2 3 3 6 9 9 7 4 3 4 1 1 4 0 1 3 3 3 3 5 8 7 12 16 15 14 14 13 12 13 11 10 10 8 10 10 9 10 8 8 8 7 6 6 6 5 5 4 4 4 4 4 4 4 4 4 4 4 4 5 5 6 6 6 6 6 6 6 7 7 8 8 8 8 8 9 10 11 11 12 13 14 14 14 14
4 1 1 1 2 1 3 5 5 6 2 1 2 3 3 7 8 7 6 4 2 4 3 2 4 1 1 3 1 2 5 6 10 11 14 17 17 16 14 12 13 13 11 10 10 9 12 13 11 10 10 9 8 7 6 6 5 5 4 4 4 3 3 3 3 3 4 4 4 4 5 5 6 6 6 6 6 6 6 7 7 8 8 9 9 10 10 10 11 12 13 14 15 15 16 16 16
3 2 1 1 2 2 4 5 6 7 4 3 4 2 2 6 7 6 6 3 3 4 6 6 5 3 2 3 1 2 6 9 13 14 14 18 18 16 14 12 13 14 12 10 10 11 13 13 12 11 10 8 7 6 5 5 4 4 3 3 3 3 3 2 3 3 3 4 4 5 5 6 6 6 7 7 7 7 7 8 8 8 8 9 10 10 11 11 12 13 14 14 15 15 16 17 17
3 3 1 0 3 3 5 5 5 4 2 3 4 4 2 5 5 5 6 5 5 4 6 7 5 4 3 3 1 1 9 14 16 15 15 18 18 17 15 13 15 15 13 11 10 13 13 11 11 10 9 8 7 6 6 5 4 4 3 3 3 3 3 3 4 4 4 4 5 5 6 6 7 7 8 8 8 8 9 10 10 10 10 10 10 10 11 11 12 13 13 14 14 14 15 15 16
2 3 1 1 3 4 5 4 4 1 4 3 2 4 3 4 4 4 5 5 6 5 5 7 4 6 4 1 0 3 14 17 17 18 16 18 18 17 17 15 15 14 14 13 11 11 11 9 9 8 8 8 7 6 5 5 4 3 3 3 3 3 4 4 5 5 5 6 6 6 7 7 8 9 9 9 9 9 10 10 11 11 11 11 11 12 12 12 12 13 13 14 14 14 14 15 15
1 3 2 2 4 4 5 4 5 3 3 3 4 5 3 4 4 4 6 5 6 6 6 6 2 3 5 3 1 8 16 16 16 19 18 19 18 16 16 16 15 14 15 13 10 10 11 10 9 8 7 7 6 6 5 4 4 3 3 4 4 5 5 6 6 7 7 7 7 7 7 8 8 9 9 9 9 9 9 9 10 10 10 10 11 11 11 12 12 12 13 14 14 14 15 15 15
2 3 1 3 4 4 5 5 5 5 3 2 3 6 5 4 5 5 5 5 7 6 6 9 2 1 4 1 1 7 13 16 18 20 20 19 18 16 15 16 16 15 15 13 11 11 11 11 11 9 8 7 6 6 5 5 4 4 4 5 6 7 7 7 7 7 7 7 7 7 8 8 8 8 8 9 9 9 9 9 9 9 9 9 9 9 10 10 10 11 11 12 13 13 13 14 14
2 3 1 3 4 5 5 4 5 4 3 2 4 5 4 3 4 4 4 5 6 3 4 10 5 2 3 1 2 4 10 18 20 21 20 18 18 17 14 15 16 15 15 14 14 12 11 11 11 10 9 9 8 7 6 6 6 6 6 6 7 7 8 8 8 8 8 8 8 8 8 9 9 9 9 9 9 10 10 9 9 10 10 10 10 10 10 10 10 10 11 11 11 11 11 11 11
1 3 1 3 4 5 4 4 3 3 2 4 3 3 3 2 2 2 3 3 3 1 1 6 5 3 2 3 3 4 15 23 22 21 20 18 18 17 15 16 16 16 16 15 15 15 14 13 12 12 11 9 9 8 7 7 7 7 8 8 7 7 7 8 8 9 9 9 9 9 10 11 11 11 10 11 11 11 12 11 11 12 12 12 12 12 12 13 13 13 13 13 13 13 13 12 11
1 3 1 3 4 5 3 3 1 2 2 3 2 3 3 3 2 1 1 1 1 1 1 2 4 1 2 1 2 11 23 25 23 22 20 18 17 16 15 15 16 16 17 16 16 16 16 15 13 13 12 10 10 9 8 8 8 8 8 8 7 7 7 8 8 9 9 9 9 10 11 11 12 12 11 12 12 13 13 13 13 14 14 14 13 14 15 15 15 16 16 16 16 16 16 15 15
1 1 2 3 4 5 2 2 0 1 1 3 3 3 4 3 2 1 1 1 2 3 2 3 5 3 1 3 9 20 26 24 24 23 20 19 18 16 15 15 16 17 18 18 17 17 17 16 15 14 13 13 11 9 9 8 8 7 7 7 7 7 7 8 8 9 9 8 10 11 10 9 10 12 11 12 12 13 14 14 14 15 15 16 15 16 17 17 17 18 19 18 18 19 18 17 17
1 2 3 4 5 5 1 2 2 1 2 2 4 4 3 3 3 2 2 3 5 4 5 4 5 3 6 10 16 24 26 25 25 24 21 19 18 17 16 17 18 18 20 20 18 19 19 18 16 16 16 15 13 11 10 9 8 7 7 6 6 6 6 7 7 8 8 9 10 9 9 8 9 11 11 12 13 14 14 15 15 16 16 16 16 17 17 17 17 18 19 19 19 19 19 19 18
3 3 3 5 5 3 1 3 3 2 4 2 2 5 4 3 5 4 1 5 6 7 8 6 8 5 9 12 19 25 25 25 25 24 22 20 20 18 18 19 20 20 21 23 21 20 21 20 18 18 18 16 14 13 11 10 9 8 7 6 6 6 6 6 6 7 7 8 9 8 8 8 9 10 11 12 12 13 14 14 15 16 16 16 16 16 16 16 16 17 18 18 18 19 19 20 19
4 3 3 6 3 4 3 3 2 2 3 4 4 3 4 5 2 4 3 6 7 10 9 7 10 10 9 11 18 23 22 23 24 23 22 22 22 20 20 22 23 23 24 25 23 21 21 21 20 19 19 18 16 14 13 12 10 9 8 7 7 6 5 5 5 5 6 7 7 7 7 8 8 9 10 11 11 12 13 13 14 14 14 15 15 15 16 17 17 18 18 18 19 19 20 20 20
3 4 5 6 1 3 4 4 3 3 4 3 6 3 3 5 2 4 4 5 7 10 10 11 13 13 11 11 15 20 20 20 22 22 21 22 22 22 22 24 25 24 23 24 24 24 23 22 22 21 20 19 17 16 15 13 12 11 10 8 7 6 5 4 4 4 4 5 5 6 7 7 7 9 9 10 11 12 13 13 13 14 15 15 16 16 17 19 19 19 19 19 20 21 21 21 20
2 5 7 9 5 4 2 4 4 4 3 2 5 6 5 4 4 6 7 7 9 6 6 10 12 12 12 15 16 17 17 16 19 20 21 22 23 24 23 23 24 23 23 25 26 27 26 24 24 24 22 21 19 18 16 15 14 12 11 10 8 7 5 5 4 3 3 3 4 5 5 6 6 8 9 9 11 11 12 13 13 14 15 15 17 17 18 20 20 19 19 20 21 21 21 20 20
3 6 7 10 8 5 3 2 2 2 1 4 4 4 3 4 6 6 9 13 12 5 1 1 4 6 9 17 17 15 15 15 18 22 24 25 26 27 25 24 25 26 26 27 27 27 27 26 26 26 24 23 21 18 18 16 15 13 13 12 10 9 8 7 5 4 3 3 3 3 4 4 4 6 7 8 9 10 11 12 13 14 14 15 16 17 18 20 20 19 19 20 21 22 22 21 21
4 6 7 10 8 6 5 2 4 3 4 6 1 3 3 7 6 5 11 16 15 11 6 1 3 3 8 15 15 15 17 17 20 26 29 29 30 31 29 26 26 28 28 28 27 28 29 28 28 27 26 25 23 20 20 18 16 16 15 13 12 11 9 9 7 5 4 3 3 2 2 2 3 4 5 6 8 9 10 11 12 12 13 13 15 16 17 19 20 19 19 20 22 23 23 23 23
6 7 8 8 5 5 5 2 5 5 5 5 2 3 7 9 5 8 17 15 11 11 10 6 5 5 9 12 14 14 14 16 19 24 26 27 28 28 28 26 25 27 29 29 28 28 30 30 29 28 27 26 25 23 21 19 19 18 15 15 14 12 11 10 8 7 6 5 4 3 2 2 1 2 3 5 6 8 9 10 10 10 11 11 13 16 17 18 19 18 18 20 22 23 22 23 23
4 6 7 6 5 5 6 6 6 6 5 4 5 9 10 8 4 12 20 16 12 10 9 9 7 7 8 10 12 13 13 14 17 20 24 26 25 26 28 28 26 28 30 30 29 29 30 31 30 29 28 28 27 24 21 20 20 19 17 17 15 14 13 11 9 9 8 6 5 4 3 2 1 1 2 3 5 6 7 8 9 9 10 11 13 16 16 17 18 18 18 19 21 21 21 21 21
1 4 6 8 10 8 7 8 7 6 6 6 8 10 9 5 2 10 15 10 11 12 11 11 8 9 9 9 10 12 13 15 19 21 20 21 23 26 29 30 29 28 29 30 30 30 31 32 31 30 29 28 27 25 23 21 21 19 19 18 16 16 15 12 11 11 10 8 6 5 4 3 2 0 1 2 4 5 6 7 8 9 10 11 13 15 15 16 17 17 15 17 19 19 20 19 19
3 4 7 9 11 11 10 11 9 7 5 8 8 8 8 3 4 15 15 2 5 10 11 12 11 10 9 9 9 9 10 16 21 20 17 21 25 28 29 32 32 29 29 32 31 30 31 32 32 30 29 28 28 27 25 23 22 21 21 19 17 17 15 14 13 12 11 9 7 6 5 3 3 1 0 2 3 4 6 7 8 10 10 11 13 14 15 16 16 14 13 15 16 17 18 18 18
3 3 5 11 11 12 13 13 11 8 5 7 6 5 9 9 11 21 19 6 4 7 8 10 11 10 9 9 9 8 10 14 18 19 22 27 28 30 31 34 35 31 30 32 31 31 32 33 32 31 30 29 29 28 27 24 22 22 21 20 19 18 16 15 15 13 12 10 8 7 5 4 4 2 1 2 3 5 6 7 8 9 10 11 13 14 15 15 14 13 13 15 16 16 17 18 18
4 3 5 8 8 9 13 13 11 9 5 8 7 3 8 11 17 21 18 10 9 9 9 9 8 8 8 8 8 9 10 12 15 21 27 29 29 31 32 33 35 34 30 31 32 33 33 33 33 32 31 31 30 28 27 25 24 23 22 21 21 19 17 16 15 14 13 11 9 8 6 5 4 3 3 3 3 5 5 7 8 8 9 11 13 14 14 14 14 12 13 16 16 16 17 18 18
3 5 5 5 4 6 8 6 11 10 4 9 7 5 9 10 14 20 17 9 11 11 10 9 8 8 8 8 9 10 11 13 19 25 28 29 29 30 32 32 34 35 32 32 34 34 34 34 34 33 32 32 30 29 28 27 26 24 23 23 21 19 18 17 16 15 13 11 10 9 8 6 5 4 3 3 4 4 5 6 7 8 10 11 12 13 13 13 13 11 13 15 16 17 18 18 18
3 3 4 5 4 7 7 2 13 12 3 8 7 3 9 13 11 10 12 10 11 11 10 9 10 10 9 9 10 11 10 13 20 24 26 30 30 30 32 33 35 37 35 34 34 34 34 34 35 35 33 33 31 29 28 27 26 24 23 23 21 20 19 18 17 16 14 13 11 10 9 7 6 6 5 4 4 4 5 5 6 8 10 10 11 12 12 12 11 12 12 12 15 18 19 19 19
4 5 5 6 6 7 6 1 8 10 5 7 10 5 6 9 6 2 2 9 11 9 9 9 11 11 11 10 9 11 10 11 14 19 25 29 30 31 33 34 36 38 37 35 35 35 35 35 35 35 34 34 32 29 28 27 26 24 24 23 21 21 20 18 18 17 15 14 12 11 10 8 8 7 6 5 5 5 5 5 7 8 9 10 11 12 11 11 11 12 12 12 15 18 19 20 21
4 5 6 7 8 8 5 1 5 7 6 7 12 10 11 9 7 2 1 6 9 9 9 10 10 10 11 9 9 11 10 11 11 15 24 28 29 31 31 33 35 37 37 35 36 37 36 36 36 35 34 33 32 30 29 28 26 25 24 23 22 22 21 19 19 18 17 16 14 13 12 9 9 8 7 7 6 5 5 6 7 8 9 10 11 11 11 10 9 9 12 15 16 16 18 19 21
5 6 5 6 8 8 8 4 3 9 7 7 9 11 15 15 12 10 9 8 9 11 10 10 11 11 12 10 10 10 11 13 12 15 24 28 29 30 30 31 33 34 35 35 35 36 35 36 36 35 34 33 33 31 30 28 27 26 24 23 22 22 22 20 20 19 18 16 15 15 13 11 10 10 9 8 7 6 6 6 7 8 9 10 10 11 11 10 9 9 14 16 16 16 16 17 19
9 10 7 8 7 7 11 8 4 11 8 8 11 11 14 16 14 13 14 11 11 12 10 10 11 12 12 11 10 10 12 13 12 17 26 29 30 31 30 30 32 33 34 34 35 35 35 35 35 35 34 34 33 32 31 30 28 27 25 24 24 24 24 23 21 20 18 17 16 16 14 12 12 12 10 8 7 6 6 6 6 7 8 9 10 10 10 10 11 13 15 15 17 18 17 17 17
12 12 9 9 8 8 13 10 4 9 6 8 13 12 13 16 15 13 13 12 12 12 11 11 12 12 12 11 12 13 13 11 10 19 26 29 30 30 29 29 30 32 32 33 35 36 36 37 37 36 36 35 36 35 34 33 32 31 28 28 28 27 26 25 23 21 19 18 18 17 15 13 13 13 11 9 8 7 6 6 6 7 8 8 9 10 10 11 12 13 14 14 16 17 19 19 17
12 10 8 8 7 10 14 8 3 6 5 7 10 11 13 16 16 13 12 13 13 13 12 13 15 15 12 11 14 14 10 6 8 13 18 25 27 27 28 28 30 31 32 33 35 36 36 37 38 38 37 37 37 38 37 36 36 35 33 32 31 29 27 27 26 24 22 20 19 18 17 15 15 14 12 10 9 8 7 6 7 7 8 8 10 10 11 12 12 12 12 14 15 15 18 18 16
9 6 5 7 7 10 11 4 2 3 3 5 8 10 11 14 16 15 14 14 13 13 14 15 16 15 13 13 13 11 8 6 8 9 12 19 23 26 27 28 31 32 33 34 35 36 36 37 38 38 38 38 38 38 38 37 35 34 33 31 30 28 27 26 25 23 22 21 20 20 18 16 16 14 13 11 10 8 8 7 7 7 8 9 10 11 12 12 11 10 10 13 15 17 18 15 12
8 6 5 8 9 9 7 2 3 4 5 5 7 8 9 12 15 16 17 18 15 14 16 16 15 15 15 16 12 8 9 8 9 9 10 13 18 23 25 27 29 30 31 33 34 36 36 37 38 38 39 39 38 38 37 36 33 31 28 26 26 25 24 23 21 19 20 21 21 20 19 18 16 15 13 12 11 9 9 8 8 8 9 9 10 11 12 11 10 9 10 12 15 17 17 15 13
8 7 7 10 11 11 9 5 2 4 7 5 4 8 8 10 14 15 13 12 13 13 13 14 14 15 15 14 11 8 9 9 11 11 10 11 14 20 25 27 28 29 31 33 36 37 37 37 38 39 39 39 38 37 36 34 32 29 26 24 23 22 22 23 22 21 22 22 22 21 19 18 16 15 14 12 11 10 10 9 8 9 9 10 10 11 11 10 9 10 11 13 14 15 16 17 17
8 7 11 15 14 12 11 8 4 3 5 2 1 7 7 7 12 12 5 4 9 8 10 13 13 15 14 10 10 10 8 9 11 12 12 11 12 17 23 26 27 29 32 35 36 38 37 37 38 38 38 38 38 37 36 35 34 33 32 31 29 26 25 27 28 28 27 26 24 21 19 17 16 16 15 14 13 11 10 10 9 9 10 10 10 11 11 10 10 11 11 13 14 15 15 16 18
9 4 7 10 11 10 9 7 3 3 5 2 3 2 8 7 8 9 4 6 9 7 8 12 12 13 12 9 9 8 8 9 10 11 11 12 12 15 19 25 29 31 33 34 35 36 36 36 37 38 38 38 38 37 37 37 36 36 36 36 34 32 30 29 30 29 28 27 24 21 19 18 18 17 16 15 13 12 11 10 10 10 10 11 10 11 11 11 11 11 11 13 16 16 16 17 18
6 2 1 1 3 5 4 3 4 4 4 3 4 4 8 13 7 8 8 8 8 8 8 11 13 13 11 11 10 8 9 10 10 10 11 13 13 15 19 26 31 32 32 33 34 35 36 36 37 38 37 37 38 38 38 39 38 38 37 35 33 33 31 29 28 27 25 25 23 22 21 20 19 18 17 15 13 12 12 11 10 10 11 11 11 11 12 11 11 12 13 15 17 17 17 18 18
4 1 2 3 2 1 1 1 4 3 5 4 6 7 5 13 6 7 10 10 9 10 10 13 15 13 11 12 11 8 10 11 11 11 12 13 13 18 23 27 30 31 31 33 35 35 35 36 36 37 37 38 38 39 40 40 39 38 37 35 32 31 29 26 26 25 23 24 24 23 23 21 20 18 16 15 14 13 12 11 11 11 12 12 12 12 12 12 12 13 15 16 17 18 17 17 18
4 2 4 5 2 1 2 2 2 2 6 7 7 9 5 13 10 6 7 8 10 10 10 13 15 13 10 11 11 9 9 9 10 10 11 12 15 20 24 25 27 29 31 33 33 34 35 35 36 38 38 38 38 39 40 40 39 37 37 36 34 31 28 25 26 27 27 27 26 25 24 22 20 18 16 15 14 14 13 12 12 12 13 12 12 12 12 12 13 14 15 16 17 17 18 18 19
3 3 3 2 1 1 2 2 1 1 9 8 10 14 9 9 7 5 7 9 10 10 10 12 11 10 10 10 9 9 8 7 8 9 9 10 14 20 23 23 26 28 30 31 32 33 35 36 36 38 38 38 38 39 40 40 39 38 38 38 36 34 31 30 30 31 30 29 28 27 25 23 21 18 17 16 15 14 14 13 13 13 13 12 12 12 12 13 13 14 14 15 17 18 19 19 19
2 3 2 1 2 2 3 1 3 2 10 5 11 17 14 10 5 3 4 8 12 12 11 12 11 10 11 9 9 8 9 8 8 8 8 9 11 15 19 20 24 27 28 31 33 34 36 36 37 37 37 38 38 39 40 41 40 40 39 38 38 36 35 35 35 34 33 32 30 28 25 23 21 19 17 17 16 15 14 14 14 14 13 13 12 12 12 13 13 14 15 17 19 19 19 19 20
2 4 4 1 2 2 1 2 2 5 10 4 10 14 12 13 9 2 3 5 11 11 9 11 12 11 10 9 9 7 8 9 9 8 8 9 9 11 13 17 22 26 29 32 34 34 35 36 37 37 38 39 38 39 40 41 41 41 40 39 38 37 37 37 36 35 34 33 31 29 27 25 23 21 21 20 18 17 16 15 14 14 13 12 12 12 12 13 14 16 18 19 19 19 20 20 20
7 6 6 5 3 2 3 4 3 6 9 4 6 8 6 8 7 9 12 10 11 11 10 11 10 10 10 10 9 7 8 9 8 9 8 9 10 10 12 16 21 24 29 32 33 34 35 35 37 38 38 39 39 39 40 41 42 41 40 39 38 38 37 37 36 35 34 33 32 30 29 27 26 24 23 21 19 17 16 16 15 14 14 13 14 15 15 16 16 17 17 18 19 20 20 20 20
9 6 5 6 4 3 3 5 6 5 6 4 3 5 4 3 3 12 16 15 12 11 12 12 9 9 9 7 7 7 8 8 7 8 9 9 11 11 12 17 21 24 28 31 32 34 35 36 38 39 39 39 40 40 40 42 42 41 40 38 38 38 38 37 36 35 34 34 32 31 29 28 26 24 22 20 18 18 17 17 16 16 16 16 16 16 16 15 15 15 16 18 20 20 19 20 21
6 5 4 5 5 5 4 6 7 3 5 6 4 4 6 5 6 9 11 12 13 12 12 11 8 8 8 6 7 7 7 7 7 8 9 9 10 10 13 18 21 24 27 30 32 34 36 37 38 40 40 40 40 41 42 42 41 40 39 39 38 38 37 37 36 35 34 34 33 31 30 28 26 24 22 21 20 19 19 19 18 17 17 16 16 15 14 14 14 15 17 19 20 20 20 20 21
3 4 5 5 3 6 5 6 5 2 6 9 5 6 8 8 10 11 11 12 12 11 12 11 10 11 10 7 7 7 7 7 8 8 9 10 10 10 14 18 21 24 28 31 34 37 40 39 39 39 38 38 40 42 42 41 40 40 40 39 38 38 38 38 37 36 34 33 32 31 30 28 26 25 23 22 21 20 20 19 18 17 16 16 15 14 13 13 14 15 17 20 21 20 20 21 21
5 3 5 1 3 1 3 1 3 3 7 9 7 9 11 9 9 6 9 13 13 12 13 13 13 13 11 8 7 8 8 8 8 9 8 9 10 11 14 20 24 27 30 33 36 38 39 39 39 39 39 41 43 43 42 40 40 40 40 40 39 39 38 38 37 37 35 34 32 31 30 28 27 26 24 23 21 21 20 18 17 17 16 16 15 14 13 13 14 16 18 20 21 20 20 21 21
5 2 2 2 1 1 3 3 2 4 6 8 11 14 12 12 10 5 6 12 14 14 14 14 15 14 10 8 9 9 8 8 8 9 9 9 10 11 14 20 25 27 30 32 34 35 36 37 38 38 40 42 42 41 40 40 40 40 40 40 40 39 38 37 37 37 36 36 35 33 31 29 27 26 24 23 21 21 19 18 17 16 16 15 14 13 13 13 14 17 19 21 22 20 20 21 21
2 2 3 1 2 3 4 4 3 5 6 7 12 15 13 10 8 7 9 13 14 13 12 12 13 12 9 8 9 8 8 8 9 9 10 11 12 13 17 22 25 28 30 30 31 33 35 36 36 37 38 38 38 39 40 40 40 40 39 39 39 39 38 38 37 37 37 37 36 34 32 30 28 26 24 22 21 20 18 17 16 16 16 15 15 14 14 14 15 17 20 22 22 20 20 21 22
4 1 3 3 2 1 1 3 3 5 6 6 7 12 14 5 2 5 8 10 11 11 10 10 10 10 10 9 8 7 7 8 9 9 9 11 11 12 17 23 25 27 27 27 29 31 32 33 34 36 37 36 38 40 40 41 41 40 39 39 40 39 39 38 37 37 37 36 35 34 32 30 28 25 24 22 21 19 18 17 16 17 17 16 15 15 15 15 16 18 21 22 22 20 20 21 22
10 8 9 9 7 4 3 6 6 4 4 6 6 11 16 4 6 4 6 9 11 11 11 10 9 10 10 8 8 8 8 9 9 9 9 10 10 10 14 18 21 23 25 28 30 30 31 33 36 36 36 37 40 41 41 42 40 40 40 40 39 39 39 38 37 37 36 36 34 33 31 29 27 25 24 22 21 19 18 18 17 18 17 16 16 15 15 16 17 19 21 22 21 20 20 21 22
Wind_Direction
48 6 359 346 318 316 294 236 279 252 211 258 258 225 123 83 102 125 126 105 151 124 77 88 58 24 88 37 334 59 56 25 21 157 189 144 145 152 133 113 110 108 105 101 90 82 97 95 85 84 83 83 81 80 81 76 76 83 83 76 72 73 70 67 73 84 78 78 82 84 78 77 73 75 78 67 39 28 35 35 39 43 55 52 42 33 31 31 26 25 25 22 13 5 3 4 5
66 337 309 311 292 301 304 186 274 257 213 249 254 197 119 100 125 158 157 137 85 76 66 51 36 46 64 9 328 16 57 44 69 99 107 135 140 151 142 121 117 118 109 105 111 105 108 104 89 89 89 88 87 88 92 90 94 97 87 80 79 78 70 67 70 76 75 64 51 41 21 15 23 40 47 36 9 357 0 355 356 358 20 40 42 38 40 38 30 32 32 24 13 2 7 5 3
125 226 285 289 265 245 295 293 264 286 276 266 304 98 125 120 130 106 99 102 85 84 73 53 35 35 8 325 338 348 100 79 92 93 119 148 148 155 154 127 122 128 116 112 123 121 114 111 98 94 93 93 93 92 94 95 101 107 111 105 106 99 84 75 67 64 53 40 17 7 357 357 354 355 353 359 5 2 355 347 345 348 354 4 13 10 22 32 18 20 28 21 7 2 9 6 9
144 129 297 293 255 209 260 216 234 282 283 282 24 134 145 127 114 80 70 79 84 104 96 77 71 27 328 256 346 16 121 91 94 107 134 159 162 160 155 126 123 129 115 114 141 139 118 117 109 102 102 101 99 96 90 93 101 104 114 118 124 120 110 102 88 76 61 50 29 17 4 3 355 354 354 349 352 349 347 347 346 346 348 345 346 342 331 338 339 338 346 351 340 341 349 346 358
86 53 297 301 300 209 287 249 249 249 257 287 351 154 103 106 109 94 86 82 78 90 88 118 106 55 73 149 331 31 130 93 93 104 119 136 150 153 143 124 126 124 116 116 143 149 136 133 125 123 130 126 124 127 122 117 117 117 119 121 121 118 114 106 97 92 80 65 46 31 14 10 7 6 7 5 2 353 345 342 342 340 340 337 337 342 341 339 334 328 327 325 319 322 329 327 332
357 322 257 273 287 35 335 264 268 253 251 293 341 109 103 101 105 108 100 81 65 58 56 118 104 44 103 95 48 73 147 140 113 111 131 140 151 151 133 126 133 130 127 140 156 154 149 153 147 142 146 142 138 134 133 128 124 122 119 117 112 106 101 94 88 82 77 68 56 45 36 29 25 24 23 21 18 12 1 350 345 340 337 334 333 335 341 341 336 330 326 324 320 320 321 322 323
310 303 217 225 260 116 262 259 262 267 286 328 352 65 89 103 108 118 124 111 80 80 62 167 111 60 226 127 73 85 120 136 134 143 154 155 156 147 133 135 142 135 135 160 176 166 154 158 156 149 147 143 137 135 132 128 126 122 118 111 105 96 90 83 81 77 71 66 58 51 45 40 37 35 32 28 23 19 11 2 356 351 347 341 339 336 337 338 334 330 328 327 325 325 325 325 324
283 292 147 213 261 166 228 255 254 264 276 31 44 34 50 110 125 134 152 170 148 154 179 172 121 110 215 149 201 152 125 123 139 148 153 157 155 144 139 146 145 141 145 172 186 171 159 155 154 150 146 143 137 137 133 131 128 123 119 110 105 96 91 81 76 73 70 63 56 48 40 38 35 34 31 29 24 19 13 8 4 359 354 349 346 343 341 339 337 335 333 334 333 332 332 331 330
229 227 33 31 260 234 234 241 245 252 222 146 107 68 19 117 138 149 166 173 136 169 171 166 152 142 172 157 188 157 138 132 136 141 151 158 155 144 140 151 153 150 156 174 186 173 164 155 152 150 145 146 142 142 139 139 135 130 124 113 113 103 95 82 74 64 60 53 50 45 37 35 34 34 32 32 27 23 19 14 13 10 5 358 354 349 346 342 340 338 337 338 337 336 335 333 332
202 201 303 336 253 267 259 244 242 241 155 92 99 135 150 127 157 165 173 172 144 172 159 153 172 190 207 161 143 180 160 151 142 142 153 158 155 149 146 161 166 159 159 172 183 173 168 161 156 156 153 154 150 151 150 148 143 137 132 123 118 107 97 82 78 68 65 60 57 54 48 47 45 44 40 39 35 30 27 23 23 20 16 11 7 2 356 352 347 344 342 341 340 339 337 336 333
212 191 203 285 259 257 256 264 287 346 105 97 105 145 150 143 175 183 187 184 152 148 130 138 184 216 236 220 116 127 149 155 152 148 154 158 156 156 156 162 169 167 167 173 182 174 171 172 170 172 171 172 167 165 158 152 149 140 134 130 115 103 95 88 88 83 79 75 71 67 62 58 54 51 47 44 40 36 33 30 28 25 23 18 15 11 6 3 359 354 351 349 347 346 344 343 341
252 214 165 234 255 256 271 300 317 347 100 169 172 150 143 153 183 200 196 196 159 147 147 164 175 198 213 238 207 134 145 161 161 155 158 157 156 162 166 164 165 174 177 173 176 174 176 183 184 188 188 189 186 181 178 167 160 150 135 123 114 109 102 97 94 90 87 82 80 76 72 68 63 58 53 50 45 43 39 36 34 31 28 23 20 16 12 8 4 1 358 356 353 352 350 348 347
243 268 192 240 254 266 287 305 310 325 314 244 158 139 136 163 198 210 200 206 179 167 178 183 152 84 205 215 130 151 159 170 164 161 160 157 159 163 171 173 171 180 180 172 176 179 182 191 191 192 192 190 190 185 183 176 167 154 137 125 119 115 111 108 103 99 96 91 89 85 83 78 74 69 64 62 57 55 49 47 46 42 38 33 30 24 19 16 12 8 3 2 360 357 354 353 352
264 294 320 271 279 278 283 280 287 302 296 26 78 121 139 185 206 209 223 229 196 184 184 177 147 96 229 194 168 191 172 169 164 163 158 157 163 161 171 178 180 183 180 179 186 186 184 196 195 192 194 187 186 182 174 167 157 147 138 129 121 118 115 113 110 108 105 102 101 99 96 91 85 77 72 71 65 63 56 52 53 51 46 42 39 34 30 27 24 19 15 13 10 6 3 1 358
291 311 316 271 285 280 273 256 267 286 293 69 84 125 151 222 193 217 247 238 210 326 82 158 146 121 231 215 206 175 161 164 161 160 157 159 164 163 174 180 184 186 182 185 192 190 188 198 196 192 195 187 187 181 171 162 150 145 138 133 125 121 117 112 110 107 104 104 104 100 93 84 78 74 71 69 66 62 57 50 51 49 45 43 40 36 33 31 29 25 23 21 20 18 14 13 11
243 321 286 260 274 273 253 227 277 281 273 101 170 140 155 220 113 156 228 93 216 197 20 168 177 180 327 250 150 135 150 159 157 157 156 157 161 166 179 183 187 189 184 187 193 192 192 199 197 194 191 186 193 183 172 166 153 148 138 134 128 123 118 112 109 104 102 100 92 83 81 76 67 63 61 62 61 57 53 47 46 45 41 40 35 34 33 28 26 25 24 21 20 20 18 18 16
179 299 244 258 257 263 247 199 257 258 214 118 195 169 175 216 112 126 146 243 254 163 202 205 196 230 34 112 131 137 147 154 153 155 155 156 161 167 179 183 187 193 190 190 194 193 194 200 198 195 191 190 199 188 175 171 160 154 142 135 128 121 117 112 109 105 104 97 86 78 81 82 66 59 55 54 54 50 48 43 41 41 38 35 31 32 29 24 23 23 21 18 18 18 16 16 13
182 200 219 244 246 251 279 332 351 18 334 115 178 188 216 225 156 145 106 235 247 220 226 200 203 195 116 127 136 141 149 154 156 159 160 163 168 171 180 185 187 194 195 194 197 198 197 199 197 197 197 196 199 190 181 176 170 161 150 143 133 126 122 115 110 104 99 93 87 80 79 79 63 53 50 46 45 42 40 37 34 32 32 30 28 30 26 21 22 21 19 17 16 13 11 12 9
207 235 241 244 259 261 230 341 349 5 325 323 172 183 225 233 163 138 170 222 216 228 237 207 215 188 125 137 143 146 153 157 163 167 169 175 179 180 183 186 189 193 198 197 196 201 203 199 196 200 201 199 197 190 186 181 177 171 162 158 151 144 134 121 108 99 93 89 89 82 71 68 58 46 42 41 39 37 34 32 30 26 26 26 25 28 23 20 22 20 18 16 13 11 10 9 6
214 225 257 252 279 315 309 348 336 0 356 312 278 188 201 243 178 120 212 242 223 226 228 204 220 212 169 157 151 153 160 164 171 176 179 185 188 188 185 187 192 193 198 199 196 200 204 201 197 201 203 199 195 189 187 185 181 179 175 173 171 160 143 128 112 101 92 85 86 80 66 60 53 42 37 36 33 33 30 27 27 23 21 22 20 20 19 18 18 17 15 13 11 9 8 6 4
215 190 232 258 280 324 320 24 18 34 46 314 293 279 221 243 221 151 196 249 247 234 224 210 216 217 186 163 162 163 167 172 179 184 187 190 193 195 193 193 195 196 197 197 198 198 201 203 197 200 204 196 193 191 187 187 185 185 183 180 180 170 155 145 132 119 100 86 81 73 63 54 43 37 32 29 27 27 26 21 20 19 16 17 15 14 15 13 13 13 10 9 8 7 6 5 3
257 231 243 262 267 283 309 67 41 46 64 295 279 273 251 232 219 196 199 226 242 228 216 219 215 218 191 167 170 170 173 178 183 191 193 194 197 199 198 196 195 195 195 194 197 199 198 201 197 200 203 193 193 192 188 191 188 188 187 183 184 179 171 166 163 146 115 97 86 74 66 53 35 31 26 22 21 20 20 17 14 13 11 12 12 11 9 10 10 8 6 5 5 5 4 3 2
236 251 250 262 263 268 265 105 86 72 187 239 247 280 283 246 243 221 215 228 239 235 195 215 205 226 182 165 169 173 181 185 188 194 195 196 197 199 198 194 192 191 193 194 196 197 196 198 199 202 201 194 193 190 190 193 186 189 192 184 186 186 179 177 183 175 150 132 107 88 76 58 37 30 22 19 17 14 14 12 8 8 8 7 8 7 5 6 6 3 3 2 0 1 2 2 1
228 261 268 277 277 266 271 124 141 188 229 243 280 359 285 240 246 241 235 235 239 248 258 212 112 85 126 154 173 180 187 190 195 199 198 200 200 200 199 195 194 191 191 192 193 195 195 196 199 201 200 195 191 189 193 191 183 193 194 185 189 188 184 187 188 187 181 165 142 119 100 80 48 34 22 19 15 11 10 7 7 6 7 4 3 4 2 2 2 1 1 358 358 359 359 359 357
223 251 259 271 279 264 268 187 171 204 231 249 284 284 249 240 261 269 254 247 239 239 244 221 169 140 133 159 182 185 192 196 199 201 202 205 204 202 200 198 194 191 192 191 191 194 194 196 198 199 199 196 192 191 194 188 189 197 192 189 194 189 190 194 187 189 195 178 163 161 137 122 68 39 24 17 12 8 6 6 6 3 5 1 359 2 0 358 359 1 0 356 355 355 356 357 354
217 255 275 286 288 274 259 231 205 209 222 215 237 252 250 248 277 272 257 249 247 238 236 225 188 187 181 175 184 188 196 199 200 202 203 205 203 202 201 200 196 194 195 192 191 193 193 195 196 197 197 197 194 192 191 189 195 197 190 196 196 190 196 194 185 189 201 193 176 178 173 166 156 41 18 11 8 4 3 4 360 357 360 355 356 360 357 357 360 2 0 352 350 352 353 352 349
302 298 308 301 290 283 264 253 230 213 218 195 214 246 252 235 183 259 257 239 235 232 233 230 204 205 206 195 191 191 199 203 202 199 199 200 200 202 200 200 201 197 195 192 193 193 192 193 194 195 196 197 196 191 188 191 198 195 193 199 195 194 198 191 188 193 201 202 190 189 189 190 204 166 16 6 3 359 360 357 351 351 352 352 356 355 354 358 360 360 355 346 346 347 345 345 344
333 338 314 285 275 268 250 248 238 219 223 199 208 256 262 215 179 246 252 222 209 216 224 227 216 215 206 207 205 194 205 207 201 197 194 198 201 202 199 201 202 198 196 194 193 192 191 192 192 193 194 195 194 190 188 193 196 194 196 198 196 198 196 190 193 198 203 203 198 202 196 199 222 221 329 350 352 350 354 349 346 348 346 350 353 351 353 358 356 355 349 342 342 342 339 342 341
312 358 303 279 274 264 246 237 224 206 212 179 176 275 263 219 216 246 249 228 212 215 222 222 217 217 202 207 212 205 212 203 198 200 202 204 203 202 201 203 201 198 198 195 193 193 192 192 191 190 192 194 193 190 189 192 195 196 197 198 201 200 194 194 197 199 207 204 199 209 202 203 225 235 284 324 339 340 347 343 343 345 341 346 350 349 352 353 351 352 345 338 340 341 339 339 335
270 250 251 276 288 268 247 232 205 190 189 149 143 266 264 226 216 239 252 224 202 218 226 221 217 217 205 206 214 216 213 202 201 206 207 207 205 203 203 204 202 199 197 193 193 194 193 192 190 189 192 193 191 190 190 190 194 196 195 199 204 199 194 198 199 200 209 209 201 208 209 211 230 243 276 305 321 331 340 340 343 340 335 342 347 347 349 348 350 350 338 334 339 340 335 332 329
258 266 248 252 275 271 264 229 179 176 177 148 152 240 263 261 225 229 246 214 187 212 220 218 219 218 216 212 215 220 214 208 210 210 207 207 206 204 203 203 202 200 196 193 194 194 192 191 189 188 192 193 190 190 191 191 195 196 194 200 203 197 196 199 200 202 207 213 211 208 209 215 233 243 262 289 306 324 332 336 338 330 329 338 343 346 346 346 347 340 332 334 335 332 328 326 325
219 247 260 230 225 262 281 208 169 174 178 166 166 225 252 267 259 237 236 196 178 208 214 214 221 221 223 219 216 223 222 216 214 212 208 206 206 203 202 202 199 199 197 195 193 191 191 191 190 189 192 192 189 190 193 192 196 195 193 201 201 194 197 199 201 205 202 210 219 215 213 217 234 245 252 270 290 306 318 325 326 322 325 333 339 343 344 343 341 331 331 334 327 323 323 323 324
215 198 244 241 236 261 268 221 185 173 130 184 199 226 248 248 257 319 192 177 176 206 216 213 219 223 226 223 217 222 227 222 216 213 208 205 205 204 202 200 199 199 197 195 191 190 190 190 190 190 192 192 188 189 191 191 194 193 193 200 199 194 196 198 201 205 202 205 215 223 224 220 231 242 248 259 272 286 304 314 315 317 321 330 336 339 339 341 341 334 330 323 317 319 320 321 324
238 208 234 242 239 256 256 274 232 185 145 196 212 233 253 248 244 274 187 180 186 208 221 225 227 228 232 229 220 221 224 223 217 210 207 205 204 205 204 201 199 198 196 195 192 190 190 189 189 190 191 191 188 187 188 190 191 190 192 198 199 194 194 198 202 204 204 204 210 222 228 226 233 240 245 254 263 276 294 302 308 315 320 326 331 332 335 339 344 331 314 312 316 319 317 321 326
247 240 254 261 247 249 254 274 209 188 187 212 213 229 249 256 258 262 255 225 211 220 225 237 242 241 243 240 232 227 222 225 221 206 205 204 203 204 203 201 199 197 194 194 192 190 189 188 188 189 190 188 187 187 187 188 188 188 190 194 196 195 193 197 203 205 205 206 209 218 227 230 236 241 242 250 260 275 290 300 308 313 315 321 323 327 332 336 335 315 307 314 322 323 321 325 327
260 267 270 271 272 265 263 276 185 182 197 218 220 229 244 253 253 254 258 245 232 236 232 238 243 244 246 243 241 235 228 231 218 202 201 201 202 201 199 197 196 194 192 191 190 188 187 186 186 188 188 187 186 186 186 185 184 185 187 190 193 194 195 196 201 206 205 206 211 218 224 227 235 242 244 251 263 274 286 295 301 306 310 315 318 322 326 326 321 315 317 321 323 326 327 328 328
259 267 270 266 272 271 268 276 209 186 199 219 224 232 244 254 255 250 257 257 250 249 244 244 244 244 245 241 243 239 235 233 201 194 197 197 200 198 195 193 190 190 189 188 187 186 188 187 187 187 187 187 187 187 186 186 185 185 186 192 194 195 196 197 200 204 205 207 213 220 223 223 231 240 246 252 262 270 279 288 293 301 306 309 312 314 316 319 320 323 325 321 319 320 321 327 334
252 257 267 271 265 267 273 278 206 188 202 232 238 245 249 256 262 259 256 254 253 251 249 251 250 251 252 246 246 242 234 211 174 182 187 190 194 193 191 188 185 186 186 187 187 187 189 190 189 189 188 188 190 191 190 190 192 192 193 196 197 196 198 200 202 203 205 208 214 220 222 222 227 235 242 247 255 262 269 279 285 292 296 301 305 308 312 319 324 325 318 312 311 309 311 324 337
263 268 272 274 269 273 281 280 191 186 191 241 251 256 257 260 263 262 257 252 248 246 246 249 252 257 259 253 251 243 220 186 168 172 175 183 187 186 185 185 187 188 186 187 188 188 190 191 191 191 190 191 192 194 194 194 196 198 199 200 197 197 200 203 206 206 205 207 214 219 220 221 227 232 237 243 249 256 263 271 279 285 290 297 301 306 311 314 317 317 308 302 303 304 307 317 329
252 255 261 266 262 267 279 248 198 205 211 245 267 268 260 263 266 262 255 252 250 248 246 250 253 254 254 253 254 235 207 188 174 173 173 178 181 181 184 185 187 187 186 187 188 188 190 192 192 192 192 193 194 196 196 197 197 197 200 200 196 197 197 198 201 204 204 206 211 217 218 219 225 231 236 241 246 253 259 266 275 282 287 294 297 301 303 306 310 307 299 293 295 298 302 308 315
241 225 231 252 254 251 257 251 215 221 231 241 291 289 263 244 252 257 256 249 246 243 241 249 254 253 252 254 255 234 203 184 176 179 177 175 179 183 187 186 186 186 188 190 190 190 192 193 194 194 195 195 195 196 196 195 193 190 188 184 182 183 183 185 187 191 197 203 208 212 215 217 221 229 235 240 245 251 258 265 272 279 283 287 289 292 294 299 299 291 291 292 290 289 292 299 305
260 215 217 240 253 256 262 280 321 303 267 215 194 287 269 211 223 249 260 212 232 232 226 238 247 253 252 247 249 236 205 184 179 181 179 178 182 184 186 187 186 189 192 193 193 193 194 194 195 195 196 196 196 196 195 193 190 186 182 177 175 175 175 184 191 193 196 201 205 209 213 217 220 225 230 236 241 246 255 262 268 274 277 280 282 284 285 285 285 286 290 288 284 284 287 290 295
272 229 219 240 255 263 265 280 297 260 266 243 131 286 284 257 225 240 234 191 221 224 218 233 240 248 249 241 240 221 194 189 182 180 180 179 180 180 186 189 189 193 196 195 195 195 195 195 195 195 196 196 196 196 195 193 191 189 187 186 185 184 184 192 199 201 203 205 206 208 212 216 219 222 225 229 236 243 250 256 264 271 273 276 276 275 276 277 280 286 286 280 279 282 283 282 286
267 263 272 228 252 265 261 262 244 240 289 273 163 148 278 280 246 202 201 193 218 228 223 236 240 241 245 251 248 205 186 189 179 180 182 181 183 184 188 192 194 196 196 194 195 196 196 195 196 196 197 197 197 197 196 195 194 192 192 192 192 194 194 196 200 202 205 207 205 205 208 211 215 219 222 225 232 240 245 251 259 265 268 270 271 270 273 276 279 281 277 274 277 280 281 280 282
249 22 42 77 84 317 74 231 250 290 319 271 186 151 243 277 256 172 186 193 210 222 219 231 239 235 233 244 244 208 192 191 180 183 183 182 188 188 189 192 196 197 195 195 196 196 196 196 196 196 197 198 198 198 197 197 197 195 195 195 195 198 198 199 200 197 196 198 197 198 201 205 210 215 220 225 230 235 241 248 253 259 262 264 265 267 270 272 275 276 274 275 278 279 278 276 276
216 131 76 74 82 44 76 230 263 352 289 251 185 159 209 274 268 190 188 203 208 216 218 228 237 236 226 229 231 205 192 191 183 184 183 184 186 185 188 190 193 196 196 197 197 195 196 196 196 197 198 199 199 199 199 199 199 198 198 198 197 197 195 193 193 189 188 189 190 192 195 199 205 211 217 223 229 234 237 243 248 252 256 258 261 265 268 270 272 273 275 279 279 277 275 272 272
169 138 81 55 267 28 64 232 99 30 271 249 184 178 194 270 280 173 184 201 195 202 220 229 235 240 233 225 220 198 183 185 180 181 182 176 176 177 181 184 188 193 195 195 196 195 196 196 196 198 199 200 200 199 200 200 200 200 201 202 199 196 191 187 184 183 185 187 188 192 195 198 203 209 217 222 227 232 235 240 246 248 251 255 260 264 267 270 273 275 276 275 272 272 273 273 273
124 119 114 343 295 17 36 298 99 201 266 248 175 181 191 233 269 118 177 194 188 199 215 218 218 229 234 224 216 196 175 174 171 173 172 158 162 171 176 181 184 187 190 193 195 195 196 197 197 198 199 200 200 200 200 200 201 203 204 203 201 197 192 188 186 185 187 189 191 194 196 197 200 205 212 218 224 229 234 239 243 245 248 253 260 264 267 269 269 269 267 267 269 270 271 271 270
146 136 138 143 285 318 310 249 154 216 258 240 171 179 200 235 251 243 239 200 193 209 217 212 206 209 223 221 213 193 165 167 167 167 169 163 168 173 175 180 181 184 188 192 194 194 195 197 197 199 200 200 200 200 201 201 202 204 205 204 202 198 195 193 191 190 191 193 194 193 194 195 196 199 205 212 221 227 233 238 240 243 248 255 260 260 259 259 259 262 265 268 270 270 270 269 267
176 159 148 163 203 242 244 243 234 239 260 260 168 175 220 265 251 213 224 220 201 208 215 214 199 192 213 217 201 177 160 165 167 168 171 173 177 178 180 182 182 186 190 191 193 194 195 197 198 201 202 201 201 201 201 202 204 206 205 204 203 200 198 197 196 194 194 196 196 196 197 198 198 202 207 213 219 224 230 234 237 242 248 252 252 251 252 256 260 265 269 271 272 272 270 269 268
192 175 161 189 189 191 227 234 242 259 279 272 166 170 227 278 205 191 208 218 207 203 213 215 200 197 219 211 171 160 162 166 167 172 178 181 181 180 182 184 186 189 191 191 193 194 195 198 200 201 202 200 201 201 202 203 205 206 205 205 203 201 200 199 198 198 198 198 199 198 199 200 202 205 209 212 215 219 223 228 233 239 245 249 249 250 255 261 267 269 271 271 272 273 270 269 270
211 158 166 227 200 184 238 259 247 264 304 272 208 212 246 261 256 220 211 219 212 208 217 214 207 218 228 208 170 168 172 171 172 176 183 186 183 181 185 188 190 191 191 193 194 194 197 200 201 202 203 201 201 202 203 205 205 204 204 204 203 202 200 199 198 198 199 200 200 201 200 201 203 203 204 206 209 214 219 225 232 239 246 249 251 255 262 269 272 270 270 270 270 271 270 269 272
186 148 194 223 168 167 216 277 279 262 278 271 236 241 274 294 276 240 211 217 216 211 218 214 210 220 223 211 189 186 185 180 181 183 187 187 184 188 192 192 192 191 192 195 197 198 199 200 201 203 202 201 202 204 205 205 204 203 204 204 203 201 200 199 197 196 197 198 199 201 202 201 202 203 203 206 210 215 221 227 235 243 248 251 255 262 268 272 272 270 269 269 269 272 271 271 274
137 182 219 198 38 100 166 260 308 261 257 272 263 261 276 284 279 238 193 208 214 209 212 211 214 222 223 212 202 204 195 183 184 187 190 193 190 191 194 196 198 197 196 199 200 202 202 202 202 201 201 202 203 204 205 204 203 202 203 203 202 201 200 199 198 196 196 196 198 200 201 202 203 204 206 209 213 219 225 232 239 246 249 254 259 266 270 271 270 270 270 270 271 273 272 273 275
134 215 265 106 92 223 166 173 223 237 250 274 278 278 274 256 260 277 212 205 206 208 208 208 214 220 220 217 216 210 189 178 188 191 192 196 196 196 196 198 202 202 202 203 203 203 204 205 205 203 203 204 203 203 203 204 204 203 202 202 201 201 200 199 198 197 197 197 198 199 200 202 204 206 208 212 218 223 227 234 240 246 250 255 262 267 270 271 269 269 270 271 271 271 271 272 275
95 359 341 82 163 175 181 186 190 216 239 268 283 288 279 250 239 242 217 198 198 203 205 210 219 220 216 215 219 210 189 189 198 199 198 196 198 201 198 198 200 202 204 204 203 203 205 206 205 204 206 205 204 203 202 203 204 203 201 200 200 200 199 199 198 197 197 198 199 200 201 202 204 207 211 214 220 224 228 234 239 245 250 255 262 266 267 267 266 268 269 269 270 270 270 273 276
178 217 246 212 184 121 218 247 220 206 222 244 268 277 273 258 156 198 191 181 193 195 198 211 218 223 221 212 215 210 202 208 206 204 206 203 202 202 200 202 202 201 202 203 203 205 205 205 205 205 205 203 204 204 202 202 202 201 200 198 197 198 197 197 197 197 198 198 199 200 201 202 203 207 211 214 219 223 228 234 238 243 249 254 259 261 262 262 263 266 267 267 269 270 272 275 279
185 195 205 204 193 173 229 247 232 203 215 229 231 260 266 259 99 127 159 173 196 193 198 213 213 220 226 217 216 214 209 214 213 209 210 205 203 200 198 202 202 199 201 202 202 203 204 205 206 205 204 203 204 203 202 202 200 199 199 197 195 195 195 195 195 196 197 197 198 199 199 200 201 205 210 214 218 223 228 233 237 242 247 251 256 258 260 261 262 265 265 266 268 270 273 277 278